| time (UTC) | temp F | wind direction | speed knots | gust knots | rain 1hr in | rain 24hr in | rain mn in | humidity % | barometer mb |
| 20260504224537 | 71 | 158 | 0.9 | 4.3 | 0.00 | 0.00 | 0.00 | 36 | 1006.1 |
| 20260504223537 | 72 | 180 | 1.7 | 8.7 | 0.00 | 0.00 | 0.00 | 33 | 1006.0 |
| 20260504222537 | 72 | 113 | 0.9 | 4.3 | 0.00 | 0.00 | 0.00 | 34 | 1005.9 |
| 20260504221538 | 72 | 135 | 0.9 | 3.5 | 0.00 | 0.00 | 0.00 | 34 | 1005.9 |
| 20260504220557 | 72 | 135 | 0.9 | 2.6 | 0.00 | 0.00 | 0.00 | 34 | 1005.9 |
| 20260504215537 | 72 | 158 | 2.6 | 6.1 | 0.00 | 0.00 | 0.00 | 32 | 1006.0 |
| 20260504214537 | 72 | 158 | 1.7 | 11.3 | 0.00 | 0.00 | 0.00 | 32 | 1006.0 |
| 20260504213537 | 73 | 180 | 2.6 | 8.7 | 0.00 | 0.00 | 0.00 | 31 | 1006.0 |
| 20260504212537 | 73 | 135 | 2.6 | 6.1 | 0.00 | 0.00 | 0.00 | 31 | 1006.0 |
| 20260504211537 | 73 | 135 | 0.9 | 2.6 | 0.00 | 0.00 | 0.00 | 32 | 1006.0 |
| 20260504210537 | 73 | 135 | 3.5 | 9.6 | 0.00 | 0.00 | 0.00 | 31 | 1006.0 |
| 20260504205537 | 73 | 158 | 1.7 | 6.1 | 0.00 | 0.00 | 0.00 | 32 | 1006.0 |
| 20260504204537 | 73 | 90 | 2.6 | 13.0 | 0.00 | 0.00 | 0.00 | 31 | 1005.9 |
| 20260504203537 | 73 | 135 | 2.6 | 6.1 | 0.00 | 0.00 | 0.00 | 31 | 1005.8 |
| 20260504202618 | 72 | 113 | 1.7 | 5.2 | 0.00 | 0.00 | 0.00 | 32 | 1006.0 |
| 20260504201537 | 73 | 90 | 2.6 | 7.0 | 0.00 | 0.00 | 0.00 | 31 | 1006.0 |
| 20260504200537 | 73 | 158 | 3.5 | 9.6 | 0.00 | 0.00 | 0.00 | 30 | 1006.0 |
| 20260504195557 | 74 | 113 | 2.6 | 7.0 | 0.00 | 0.00 | 0.00 | 29 | 1006.1 |
| 20260504194537 | 74 | 158 | 0.9 | 5.2 | 0.00 | 0.00 | 0.00 | 29 | 1006.1 |
| 20260504193537 | 74 | 158 | 1.7 | 10.4 | 0.00 | 0.00 | 0.00 | 30 | 1006.2 |
| 20260504192537 | 73 | 90 | 2.6 | 7.8 | 0.00 | 0.00 | 0.00 | 29 | 1006.1 |
| 20260504191658 | 73 | 158 | 1.7 | 7.8 | 0.00 | 0.00 | 0.00 | 30 | 1006.1 |
| 20260504190537 | 73 | 113 | 1.7 | 5.2 | 0.00 | 0.00 | 0.00 | 30 | 1006.2 |
| 20260504185537 | 73 | 180 | 2.6 | 7.0 | 0.00 | 0.00 | 0.00 | 28 | 1006.3 |
| 20260504184537 | 73 | 135 | 1.7 | 9.6 | 0.00 | 0.00 | 0.00 | 30 | 1006.5 |
| 20260504183537 | 73 | 113 | 3.5 | 9.6 | 0.00 | 0.00 | 0.00 | 28 | 1006.5 |
| 20260504182537 | 72 | 158 | 1.7 | 6.1 | 0.00 | 0.00 | 0.00 | 32 | 1006.6 |
| 20260504181538 | 72 | 180 | 1.7 | 8.7 | 0.00 | 0.00 | 0.00 | 31 | 1006.6 |
| 20260504180557 | 71 | 180 | 1.7 | 5.2 | 0.00 | 0.00 | 0.00 | 32 | 1006.7 |
| 20260504175537 | 71 | 135 | 2.6 | 7.8 | 0.00 | 0.00 | 0.00 | 32 | 1006.7 |
| 20260504174757 | 70 | 90 | 3.5 | 11.3 | 0.00 | 0.00 | 0.00 | 32 | 1006.8 |
| 20260504173537 | 71 | 113 | 2.6 | 6.1 | 0.00 | 0.00 | 0.00 | 32 | 1007.0 |
| 20260504172537 | 70 | 158 | 1.7 | 6.1 | 0.00 | 0.00 | 0.00 | 33 | 1007.1 |
| 20260504171537 | 70 | 158 | 3.5 | 11.3 | 0.00 | 0.00 | 0.00 | 33 | 1007.1 |
| 20260504170537 | 69 | 90 | 3.5 | 8.7 | 0.00 | 0.00 | 0.00 | 34 | 1007.2 |
| 20260504150557 | 66 | 135 | 2.6 | 13.0 | 0.00 | 0.00 | 0.00 | 37 | 1008.5 |
| 20260504140539 | 63 | 0.0 | 1.7 | 0.00 | 0.00 | 0.00 | 43 | 1008.9 | |
| 20260504130537 | 56 | 0.0 | 4.3 | 0.00 | 0.00 | 0.00 | 52 | 1009.9 | |
| 20260504110539 | 47 | 0.0 | 0.0 | 0.00 | 0.00 | 0.00 | 64 | 1010.2 | |
| 20260504100539 | 46 | 0.0 | 0.0 | 0.00 | 0.00 | 0.00 | 67 | 1010.1 | |
| 20260504081539 | 43 | 0.0 | 0.0 | 0.00 | 0.00 | 0.00 | 75 | 1010.0 | |
| 20260504080539 | 42 | 0.0 | 0.0 | 0.00 | 0.00 | 0.00 | 74 | 1009.9 | |
| 20260504050559 | 38 | 0.0 | 0.0 | 0.00 | 0.00 | 0.00 | 83 | 1009.8 | |
| 20260504045539 | 38 | 0.0 | 0.0 | 0.00 | 0.00 | 0.00 | 83 | 1010.0 | |
| 20260504044539 | 38 | 0.0 | 0.0 | 0.00 | 0.00 | 0.00 | 82 | 1010.0 | |
| 20260504043539 | 38 | 0.0 | 0.0 | 0.00 | 0.00 | 0.00 | 81 | 1010.0 | |
| 20260504042539 | 38 | 0.0 | 0.0 | 0.00 | 0.00 | 0.00 | 80 | 1009.9 | |
| 20260504041539 | 38 | 0.0 | 0.0 | 0.00 | 0.00 | 0.00 | 80 | 1009.9 | |
| 20260504040539 | 39 | 0.0 | 0.0 | 0.00 | 0.00 | 0.00 | 80 | 1009.7 | |
| 20260504035538 | 39 | 0.0 | 0.0 | 0.00 | 0.00 | 0.00 | 79 | 1009.7 | |
| 20260504034538 | 39 | 0.0 | 0.0 | 0.00 | 0.00 | 0.00 | 78 | 1009.7 | |
| 20260504033538 | 40 | 0.0 | 0.0 | 0.00 | 0.00 | 0.00 | 77 | 1009.5 | |
| 20260504032557 | 40 | 0.0 | 0.0 | 0.00 | 0.00 | 0.00 | 76 | 1009.4 | |
| 20260504031538 | 40 | 0.0 | 0.0 | 0.00 | 0.00 | 0.00 | 76 | 1009.4 | |
| 20260504030558 | 41 | 0.0 | 0.0 | 0.00 | 0.00 | 0.00 | 75 | 1009.4 | |
| 20260504025537 | 41 | 0.0 | 0.0 | 0.00 | 0.00 | 0.00 | 74 | 1009.4 | |
| 20260504024538 | 42 | 0.0 | 0.0 | 0.00 | 0.00 | 0.00 | 73 | 1009.3 | |
| 20260504023538 | 42 | 0.0 | 0.0 | 0.00 | 0.00 | 0.00 | 71 | 1009.3 | |
| 20260504022538 | 43 | 0.0 | 0.0 | 0.00 | 0.00 | 0.00 | 70 | 1009.3 | |
| 20260504021538 | 43 | 0.0 | 0.0 | 0.00 | 0.00 | 0.00 | 69 | 1009.3 | |
| 20260504020558 | 44 | 0.0 | 0.0 | 0.00 | 0.00 | 0.00 | 67 | 1009.3 | |
| 20260504015558 | 44 | 0.0 | 0.0 | 0.00 | 0.00 | 0.00 | 66 | 1009.2 | |
| 20260504014538 | 45 | 0.0 | 0.0 | 0.00 | 0.00 | 0.00 | 65 | 1009.1 | |
| 20260504013538 | 45 | 0.0 | 0.0 | 0.00 | 0.00 | 0.00 | 64 | 1009.1 | |
| 20260504012538 | 46 | 0.0 | 0.0 | 0.00 | 0.00 | 0.00 | 62 | 1009.0 | |
| 20260504011537 | 46 | 0.0 | 0.0 | 0.00 | 0.00 | 0.00 | 60 | 1008.9 | |
| 20260504010537 | 47 | 0.0 | 0.0 | 0.00 | 0.00 | 0.00 | 57 | 1008.9 | |
| 20260504005558 | 47 | 0.0 | 0.0 | 0.00 | 0.00 | 0.00 | 54 | 1008.7 | |
| 20260504004538 | 48 | 0.0 | 0.0 | 0.00 | 0.00 | 0.00 | 53 | 1008.6 | |
| 20260504003537 | 48 | 0.0 | 0.0 | 0.00 | 0.00 | 0.00 | 51 | 1008.4 | |
| 20260504002538 | 49 | 0.0 | 0.0 | 0.00 | 0.00 | 0.00 | 50 | 1008.3 | |
| 20260504001537 | 50 | 0.0 | 0.0 | 0.00 | 0.00 | 0.00 | 48 | 1008.2 | |
| 20260504000558 | 50 | 0.0 | 0.0 | 0.00 | 0.00 | 0.00 | 46 | 1008.2 | |
| 20260503235537 | 51 | 0.0 | 0.0 | 0.00 | 0.00 | 0.00 | 46 | 1008.0 | |
| 20260503234538 | 51 | 0.0 | 0.0 | 0.00 | 0.00 | 0.00 | 44 | 1008.0 | |
| 20260503233538 | 52 | 0.0 | 0.0 | 0.00 | 0.00 | 0.00 | 43 | 1007.9 | |
| 20260503232537 | 52 | 0.0 | 0.0 | 0.00 | 0.00 | 0.00 | 43 | 1007.8 | |
| 20260503231537 | 52 | 0.0 | 1.7 | 0.00 | 0.00 | 0.00 | 41 | 1007.7 | |
| 20260503230538 | 53 | 0.0 | 4.3 | 0.00 | 0.00 | 0.00 | 41 | 1007.6 | |
| 20260503225537 | 53 | 203 | 0.9 | 4.3 | 0.00 | 0.00 | 0.00 | 41 | 1007.5 |